Городище

Беларусь     53˚19′39″N   26˚00′28″E
темп.,
°C
ветер,
м/с
пор.,
м/с
влажн.,
%
обл.,
%
осадки,
мм/ч
давл.,
гПа
погр.,
м
6 декабря, вс
вс600:00+3˚юв8158893 0.0 1025615
03:00+3˚ююв8148697 0.0 1026670
06:00+2˚ююв8148694 0.0 1026699
09:00+1˚юв8148696 0.0 1027654
12:00юв9158288 0.0 1027612
15:00+1˚юв9156946 0.0 1027668
18:00−1˚юв816630 0.0 1028550
21:00−2˚юв816610 0.0 1028511
7 декабря, пн
пн700:00−3˚юв815580 0.0 1028547
03:00−3˚юв817610 0.0 1028565
06:00−3˚юв916640 0.0 1027611
09:00−4˚юв916640 0.0 1027608
12:00−3˚юв917570 0.0 1027673
15:00−2˚юв916530 0.0 1027707
18:00−4˚юв815560 0.0 1027621
21:00−4˚юв916610 0.0 1027618
8 декабря, вт
вт800:00−4˚юв815720 0.0 1027645
03:00−5˚юв815711 0.0 1027584
06:00−5˚вюв714670 0.0 1027557
09:00−5˚вюв814680 0.0 1027517
12:00−4˚вюв814650 0.0 1027558
15:00−4˚вюв713640 0.0 1027588
18:00−5˚вюв714670 0.0 1026572
21:00−5˚юв713710 0.0 1027668
9 декабря, ср
ср900:00−6˚юв6117782 0.0 1027642
03:00−6˚юв6118390 0.0 1027521
06:00−5˚вюв6108296 0.0 1027399
09:00−4˚вюв6117298 0.0 1027456
12:00−4˚вюв6106693 0.0 1027462
15:00−4˚вюв696777 0.0 1025527
18:00−5˚вюв6119190 0.3 1025451
21:00−5˚вюв6119095 1.0 1025503
10 декабря, чт
чт1000:00−4˚вюв6107692 0.0 1024430
03:00−4˚вюв6108195 0.0 1024401
06:00−4˚вюв6118890 0.0 1023390
09:00−3˚вюв6119495 0.3 1022395
12:00−2˚вюв61295100 0.6 1022465
15:00−1˚вюв7118898 0.7 1021415
18:00−1˚вюв71391100 0.1 1020430
21:00вюв71394100 0.9 1019388